When you browse on this site, cookies collect data to enhance your experience and personalize the content and advertising you see.
Visit our Privacy Policy to learn more. By continuing to use the site, you agree to this use of cookies and data.
  • In Deutschland
  • Länderverzeichnis
  • Für 7 Tage
  • Wassertemperatur
  • Wetterkarte
  • Widgets
  • user-avatar
    Anmelden

    Stündliche Wetter Berlin

    Heute, 15 Oktober, Dienstag

    Zeit Temperatur Niederschläge Wind Luftdruck Luftfeuchtigkeit
    00:00 +16°C° 0 mm 3 m/S 755 mmHg 82%
    01:00 +16°C° 0 mm 2 m/S 755 mmHg 84%
    02:00 +15°C° 0 mm 2 m/S 754 mmHg 84%
    03:00 +15°C° 0 mm 2 m/S 754 mmHg 85%
    04:00 +15°C° 0 mm 2 m/S 753 mmHg 86%
    05:00 +14°C° 0 mm 2 m/S 753 mmHg 87%
    06:00 +14°C° 0 mm 2 m/S 753 mmHg 88%
    07:00 +14°C° 0 mm 2 m/S 753 mmHg 89%
    08:00 +15°C° 0 mm 2 m/S 753 mmHg 84%
    09:00 +17°C° 0 mm 3 m/S 752 mmHg 78%
    10:00 +18°C° 0 mm 3 m/S 752 mmHg 73%
    11:00 +19°C° 0 mm 2 m/S 752 mmHg 69%
    12:00 +20°C° 0 mm 2 m/S 751 mmHg 64%
    13:00 +21°C° 0 mm 2 m/S 751 mmHg 60%
    14:00 +22°C° 0 mm 1 m/S 751 mmHg 62%
    15:00 +22°C° 0 mm 1 m/S 751 mmHg 63%
    16:00 +22°C° 0 mm 1 m/S 750 mmHg 65%
    17:00 +21°C° 0 mm 1 m/S 750 mmHg 70%
    18:00 +19°C° 0 mm 1 m/S 750 mmHg 75%
    19:00 +18°C° 0 mm 1 m/S 750 mmHg 80%
    20:00 +18°C° 0 mm 1 m/S 750 mmHg 82%
    21:00 +16°C° 0 mm 1 m/S 750 mmHg 85%
    22:00 +16°C° 0 mm 1 m/S 749 mmHg 87%
    23:00 +15°C° 0 mm 1 m/S 749 mmHg 88%

    Morgen, 16 Oktober, Mittwoch

    Zeit Temperatur Niederschläge Wind Luftdruck Luftfeuchtigkeit
    00:00 +15°C° 0 mm 1 m/S 749 mmHg 89%
    01:00 +14°C° 0 mm 1 m/S 749 mmHg 90%
    02:00 +14°C° 0 mm 1 m/S 749 mmHg 91%
    03:00 +14°C° 0 mm 2 m/S 749 mmHg 92%
    04:00 +14°C° 0 mm 2 m/S 749 mmHg 93%
    05:00 +13°C° 0 mm 3 m/S 749 mmHg 90%
    06:00 +13°C° 0 mm 5 m/S 750 mmHg 87%
    07:00 +14°C° 0 mm 6 m/S 750 mmHg 84%
    08:00 +12°C° 1 mm 7 m/S 751 mmHg 85%
    09:00 +12°C° 1 mm 7 m/S 751 mmHg 86%
    10:00 +11°C° 1 mm 8 m/S 752 mmHg 86%
    11:00 +11°C° 1.2 mm 7 m/S 752 mmHg 85%
    12:00 +13°C° 1.2 mm 6 m/S 752 mmHg 84%
    13:00 +13°C° 1.2 mm 6 m/S 753 mmHg 83%
    14:00 +13°C° 0.5 mm 5 m/S 753 mmHg 82%
    15:00 +13°C° 0.5 mm 5 m/S 753 mmHg 81%
    16:00 +13°C° 0.5 mm 4 m/S 753 mmHg 79%
    17:00 +12°C° 0.4 mm 4 m/S 753 mmHg 80%
    18:00 +12°C° 0.4 mm 4 m/S 754 mmHg 80%
    19:00 +12°C° 0.4 mm 4 m/S 754 mmHg 80%
    20:00 +12°C° 0 mm 4 m/S 754 mmHg 82%
    21:00 +11°C° 0 mm 4 m/S 755 mmHg 84%
    22:00 +11°C° 0 mm 4 m/S 755 mmHg 86%
    23:00 +11°C° 0 mm 3 m/S 756 mmHg 85%

    übermorgen, 17 Oktober, Donnerstag

    Zeit Temperatur Niederschläge Wind Luftdruck Luftfeuchtigkeit
    00:00 +12°C° 0 mm 3 m/S 756 mmHg 85%
    01:00 +12°C° 0 mm 3 m/S 756 mmHg 85%
    02:00 +12°C° 0 mm 3 m/S 756 mmHg 85%
    03:00 +12°C° 0 mm 3 m/S 756 mmHg 84%
    04:00 +12°C° 0 mm 3 m/S 756 mmHg 84%
    05:00 +12°C° 0 mm 3 m/S 756 mmHg 83%
    06:00 +12°C° 0 mm 3 m/S 756 mmHg 82%
    07:00 +12°C° 0 mm 3 m/S 756 mmHg 81%
    08:00 +13°C° 0 mm 3 m/S 756 mmHg 77%
    09:00 +14°C° 0 mm 4 m/S 757 mmHg 72%
    10:00 +15°C° 0 mm 4 m/S 757 mmHg 68%
    11:00 +14°C° 0 mm 4 m/S 757 mmHg 69%
    12:00 +14°C° 0 mm 4 m/S 757 mmHg 71%
    13:00 +14°C° 0 mm 4 m/S 757 mmHg 72%
    14:00 +14°C° 0 mm 3 m/S 757 mmHg 73%
    15:00 +14°C° 0 mm 3 m/S 757 mmHg 73%
    16:00 +15°C° 0 mm 2 m/S 757 mmHg 74%
    17:00 +15°C° 0 mm 2 m/S 757 mmHg 77%
    18:00 +14°C° 0 mm 2 m/S 757 mmHg 79%
    19:00 +14°C° 0 mm 2 m/S 757 mmHg 81%
    20:00 +13°C° 0 mm 2 m/S 758 mmHg 84%
    21:00 +13°C° 0 mm 2 m/S 758 mmHg 86%
    22:00 +13°C° 0 mm 2 m/S 758 mmHg 89%
    23:00 +12°C° 0 mm 2 m/S 758 mmHg 90%

    18 Oktober, Freitag

    Zeit Temperatur Niederschläge Wind Luftdruck Luftfeuchtigkeit
    00:00 +12°C° 0 mm 2 m/S 758 mmHg 91%
    01:00 +12°C° 0 mm 2 m/S 758 mmHg 92%
    02:00 +12°C° 0 mm 2 m/S 758 mmHg 92%
    03:00 +12°C° 0 mm 2 m/S 758 mmHg 92%
    04:00 +12°C° 0 mm 2 m/S 758 mmHg 93%
    05:00 +10°C° 0 mm 2 m/S 758 mmHg 93%
    06:00 +10°C° 0 mm 2 m/S 758 mmHg 93%
    07:00 +10°C° 0 mm 2 m/S 758 mmHg 94%
    08:00 +12°C° 0 mm 2 m/S 758 mmHg 87%
    09:00 +14°C° 0 mm 2 m/S 758 mmHg 81%
    10:00 +16°C° 0 mm 2 m/S 758 mmHg 74%
    11:00 +17°C° 0 mm 3 m/S 757 mmHg 70%
    12:00 +18°C° 0 mm 3 m/S 757 mmHg 65%
    13:00 +19°C° 0 mm 4 m/S 757 mmHg 60%
    14:00 +18°C° 0 mm 4 m/S 757 mmHg 65%
    15:00 +17°C° 0 mm 4 m/S 756 mmHg 69%
    16:00 +17°C° 0 mm 3 m/S 756 mmHg 73%
    17:00 +16°C° 0 mm 3 m/S 756 mmHg 77%
    18:00 +14°C° 0 mm 3 m/S 757 mmHg 80%
    19:00 +14°C° 0 mm 2 m/S 757 mmHg 84%
    20:00 +14°C° 0 mm 2 m/S 757 mmHg 86%
    21:00 +14°C° 0 mm 2 m/S 757 mmHg 87%
    22:00 +14°C° 0 mm 2 m/S 757 mmHg 89%
    23:00 +13°C° 0 mm 2 m/S 757 mmHg 88%

    19 Oktober, Samstag

    Zeit Temperatur Niederschläge Wind Luftdruck Luftfeuchtigkeit
    00:00 +13°C° 0 mm 1 m/S 756 mmHg 88%
    01:00 +13°C° 0 mm 1 m/S 756 mmHg 88%
    02:00 +13°C° 0.1 mm 1 m/S 756 mmHg 87%
    03:00 +13°C° 0.1 mm 1 m/S 756 mmHg 87%
    04:00 +14°C° 0.1 mm 1 m/S 756 mmHg 86%
    05:00 +13°C° 0.1 mm 1 m/S 756 mmHg 86%
    06:00 +13°C° 0.1 mm 1 m/S 756 mmHg 85%
    07:00 +13°C° 0.1 mm 1 m/S 756 mmHg 85%
    08:00 +13°C° 0.3 mm 1 m/S 755 mmHg 86%
    09:00 +14°C° 0.3 mm 1 m/S 755 mmHg 86%
    10:00 +14°C° 0.3 mm 1 m/S 755 mmHg 87%
    11:00 +14°C° 0.1 mm 1 m/S 755 mmHg 86%
    12:00 +15°C° 0.1 mm 1 m/S 755 mmHg 85%
    13:00 +15°C° 0.1 mm 1 m/S 755 mmHg 83%
    14:00 +15°C° 0 mm 1 m/S 754 mmHg 83%
    15:00 +15°C° 0 mm 1 m/S 754 mmHg 83%
    16:00 +16°C° 0 mm 1 m/S 754 mmHg 83%
    17:00 +15°C° 0 mm 1 m/S 754 mmHg 85%
    18:00 +14°C° 0 mm 1 m/S 754 mmHg 88%
    19:00 +13°C° 0 mm 1 m/S 754 mmHg 90%
    20:00 +13°C° 0 mm 1 m/S 754 mmHg 90%
    21:00 +13°C° 0 mm 1 m/S 753 mmHg 89%
    22:00 +13°C° 0 mm 2 m/S 753 mmHg 88%
    23:00 +13°C° 0 mm 1 m/S 753 mmHg 89%

    20 Oktober, Sonntag

    Zeit Temperatur Niederschläge Wind Luftdruck Luftfeuchtigkeit
    00:00 +13°C° 0 mm 1 m/S 753 mmHg 90%
    01:00 +12°C° 0 mm 0 m/S 752 mmHg 90%
    02:00 +13°C° 1.4 mm 1 m/S 752 mmHg 91%
    03:00 +13°C° 1.4 mm 2 m/S 752 mmHg 93%
    04:00 +12°C° 1.4 mm 3 m/S 752 mmHg 94%
    05:00 +12°C° 1.1 mm 3 m/S 752 mmHg 94%
    06:00 +13°C° 1.1 mm 2 m/S 753 mmHg 94%
    07:00 +13°C° 1.1 mm 2 m/S 753 mmHg 94%
    08:00 +12°C° 0 mm 3 m/S 753 mmHg 89%
    09:00 +13°C° 0 mm 3 m/S 754 mmHg 85%
    10:00 +13°C° 0 mm 4 m/S 754 mmHg 80%
    11:00 +14°C° 0 mm 4 m/S 754 mmHg 76%
    12:00 +14°C° 0 mm 3 m/S 755 mmHg 71%
    13:00 +16°C° 0 mm 3 m/S 755 mmHg 67%
    14:00 +16°C° 0 mm 3 m/S 755 mmHg 68%
    15:00 +16°C° 0 mm 3 m/S 755 mmHg 69%
    16:00 +15°C° 0 mm 2 m/S 755 mmHg 70%
    17:00 +14°C° 0 mm 2 m/S 756 mmHg 74%
    18:00 +13°C° 0 mm 2 m/S 756 mmHg 77%
    19:00 +12°C° 0 mm 2 m/S 757 mmHg 81%
    20:00 +12°C° 0 mm 2 m/S 757 mmHg 82%
    21:00 +10°C° 0 mm 2 m/S 757 mmHg 83%
    22:00 +10°C° 0 mm 2 m/S 758 mmHg 84%
    23:00 +10°C° 0 mm 2 m/S 758 mmHg 84%
    Mehr zeigen